PROBA-1 1 26958U 01049B 26037.28299230 .00004147 00000+0 27331-3 0 9991 2 26958 97.9619 41.2898 0055026 204.2452 155.6184 15.06854002323900 CUTE-1 (CO-55) 1 27844U 03031E 26037.02060227 .00000479 00000+0 22668-3 0 9995 2 27844 98.6774 47.2153 0009182 200.5124 159.5687 14.24238896173003 CUBESAT XI-IV (CO-57) 1 27848U 03031J 26036.94383249 .00000403 00000+0 19611-3 0 9992 2 27848 98.6803 46.9576 0008751 219.9114 140.1422 14.23538042172703 APRIZESAT 4 1 35684U 09041D 26037.15997258 .00001199 00000+0 14984-3 0 9992 2 35684 98.1551 109.8236 0044030 28.0963 332.2613 14.83644323891933 APRIZESAT 3 1 35686U 09041F 26036.93669819 .00003661 00000+0 32152-3 0 9991 2 35686 98.1835 184.0700 0063063 139.7971 220.7938 14.95743125896756 PROBA-2 1 36037U 09059B 26036.94400803 .00000440 00000+0 11324-3 0 9998 2 36037 98.2402 222.1246 0012545 330.6756 29.3735 14.54766748862447 APRIZESAT 5 1 37792U 11044E 26036.79433281 .00002031 00000+0 26470-3 0 9999 2 37792 98.2389 326.2030 0053858 66.3763 294.3090 14.80751285779343 APRIZESAT 6 1 37793U 11044F 26037.19560755 .00001173 00000+0 17300-3 0 9990 2 37793 98.2443 304.9916 0044005 143.5797 11.4242 14.76685025777810 PROBA-V 1 39159U 13021A 26036.89614110 .00000112 00000+0 67124-4 0 9998 2 39159 98.3457 22.0760 0004743 143.8372 216.3129 14.23565159662434 APRIZESAT 7 1 39416U 13066A 26037.12084936 .00002265 00000+0 23139-3 0 9995 2 39416 97.7550 352.3884 0034565 286.7414 73.0012 14.91164091661693 APRIZESAT 8 1 39425U 13066K 26037.30493118 .00002127 00000+0 23733-3 0 9998 2 39425 97.8076 346.7481 0046219 358.6447 1.4637 14.87315450660218 BUGSAT-1 (TITA) 1 40014U 14033E 26037.25056887 .00008849 00000+0 48561-3 0 9994 2 40014 98.0473 122.2894 0027904 267.5732 92.2303 15.14080344636019 SAUDISAT 4 1 40016U 14033G 26036.97574190 .00001439 00000+0 19673-3 0 9996 2 40016 97.7353 187.8218 0045879 139.1881 221.2782 14.79320583626679 APRIZESAT 9 1 40018U 14033J 26036.93143078 .00001232 00000+0 18917-3 0 9992 2 40018 97.8833 173.5206 0065089 262.1986 97.1830 14.73999207624224 APRIZESAT 10 1 40019U 14033K 26037.30301946 .00000828 00000+0 13792-3 0 9991 2 40019 97.9438 167.3570 0078392 332.6515 27.0574 14.70698975623012 TECHDEMOSAT-1 (TDS-1) 1 40076U 14037H 26036.94109928 .00016814 00000+0 10137-2 0 9994 2 40076 98.3741 16.4572 0006750 9.5661 350.5694 15.10833491628396 TECHNOSAT 1 42829U 17042E 26036.96146433 .00006002 00000+0 43729-3 0 9997 2 42829 97.4098 199.8241 0018025 176.4802 183.6554 15.03978372466971 FLYING LAPTOP 1 42831U 17042G 26037.30001506 .00003840 00000+0 31019-3 0 9996 2 42831 97.4220 198.3886 0015522 203.9041 156.1464 15.00296917466824 HAWK-A 1 43765U 18099H 26037.13850146 .00011167 00000+0 47288-3 0 9995 2 43765 97.4119 91.1269 0037081 28.7064 331.6202 15.22698329393146 HAWK-B 1 43794U 18099AN 26037.14149368 .00010663 00000+0 47552-3 0 9999 2 43794 97.4167 90.8043 0034394 45.2330 315.1695 15.21041292393100 HAWK-C 1 43799U 18099AT 26037.06826187 .00013213 00000+0 50595-3 0 9991 2 43799 97.4096 91.3607 0043373 30.9896 329.3887 15.25776439393903 SALSAT 1 46495U 20068K 26036.97412362 .00013707 00000+0 51090-3 0 9990 2 46495 97.8835 32.2877 0011761 50.0949 310.1321 15.27510179295311 HAWK-2C 1 47502U 21006CT 26037.08377350 .00012559 00000+0 39897-3 0 9998 2 47502 97.2480 84.0438 0005879 322.8033 37.2802 15.32760467279402 HAWK-2A 1 47505U 21006CW 26037.08729195 .00016151 00000+0 51197-3 0 9998 2 47505 97.2520 84.6474 0005603 327.4669 32.6228 15.32773795279406 HAWK-2B 1 47508U 21006CZ 26036.56177664 .00012803 00000+0 40681-3 0 9997 2 47508 97.2387 82.6857 0006139 326.0810 34.0039 15.32746101279329 HAWK-3B 1 48931U 21059BE 26036.99618770 .00049540 00000+0 63282-3 0 9991 2 48931 97.6710 222.3226 0006480 88.4793 271.7205 15.59091499257340 HAWK-3C 1 48948U 21059BX 26036.99598269 .00052983 00000+0 67607-3 0 9999 2 48948 97.6865 227.7546 0006967 89.4177 270.7877 15.59101151257341 HAWK-3A 1 48957U 21059CG 26036.99581444 .00052227 00000+0 66675-3 0 9991 2 48957 97.6798 225.0725 0006542 88.2385 271.9619 15.59094761257348 HAWK-5C 1 52754U 22057Y 26036.95999448 .00029491 00000+0 60349-3 0 9992 2 52754 97.6418 188.8407 0005061 179.4032 180.7224 15.46062396206031 HAWK-5B 1 52756U 22057AA 26037.21873164 .00025586 00000+0 52393-3 0 9991 2 52756 97.6400 187.4584 0005077 173.9464 186.1847 15.46072385206074 HAWK-5A 1 52757U 22057AB 26036.89486257 .00030138 00000+0 61661-3 0 9995 2 52757 97.6411 187.9481 0005534 176.6366 183.4921 15.46060862206022 HAWK-6B 1 55324U 23011A 26037.03929575 .00008897 00000+0 39567-3 0 9998 2 55324 40.5148 36.1909 0003454 215.6662 144.3916 15.21462344167852 HAWK-6C 1 55326U 23011C 26037.03868193 .00009007 00000+0 40044-3 0 9994 2 55326 40.4836 33.1448 0003236 204.4908 155.5747 15.21461455167868 HAWK-6A 1 55327U 23011D 26037.03869469 .00008993 00000+0 39982-3 0 9994 2 55327 40.4995 34.7097 0002904 208.1421 151.9231 15.21461478167867 HAWK-7A 1 56191U 23054P 26037.16663360 .00010306 00000+0 38114-3 0 9994 2 56191 97.2878 287.7916 0007971 196.2365 163.8621 15.27855773157034 HAWK-7B 1 56193U 23054R 26037.16652200 .00010179 00000+0 37648-3 0 9996 2 56193 97.2901 286.0053 0008352 203.8948 156.1905 15.27851725157036 HAWK-7C 1 56200U 23054Y 26036.64231653 .00010807 00000+0 39967-3 0 9996 2 56200 97.2884 286.3038 0007605 203.3753 156.7142 15.27845878156951